This is the latest recevied weather packets stored in our database for station/object N2UGS-WX. If no packets are shown the sender has not sent any weather packets the latest 10 day(s).
| Time | Temp. | Humidity | Pressure | Rain* | Wind** | Luminosity | Snow |
|---|---|---|---|---|---|---|---|
| 1778248201 | 7.78° C | 90% | 1013.2 hPa | 0 mm | - | - | - |
| 1778247543 | 7.22° C | 92% | 1013.2 hPa | 0.25 mm | - | - | - |
| 1778246942 | 6.11° C | 94% | 1013.2 hPa | 0.25 mm | - | - | - |
| 1778246042 | 5.56° C | 94% | 1013.2 hPa | 0.25 mm | - | - | - |
| 1778245142 | 5° C | 94% | 1012.9 hPa | 0.25 mm | - | - | - |
| 1778244242 | 5° C | 94% | 1012.9 hPa | 0 mm | - | - | - |
| 1778243642 | 5° C | 94% | 1012.9 hPa | 0.25 mm | - | - | - |
| 1778242802 | 4.44° C | 94% | 1012.9 hPa | 0.51 mm | - | - | - |
| 1778242142 | 4.44° C | 94% | 1012.9 hPa | 0.76 mm | - | - | - |
| 1778241242 | 4.44° C | 94% | 1012.9 hPa | 1.78 mm | - | - | - |
| 1778240402 | 4.44° C | 93% | 1012.9 hPa | 1.52 mm | - | - | - |
| 1778239741 | 4.44° C | 93% | 1012.9 hPa | 1.52 mm | - | - | - |
| 1778238903 | 5° C | 92% | 1012.5 hPa | 1.02 mm | - | - | - |
| 1778238003 | 5° C | 92% | 1012.2 hPa | 0 mm | - | - | - |
| 1778237102 | 5° C | 91% | 1011.9 hPa | 0.51 mm | - | - | - |
| 1778236202 | 5° C | 90% | 1011.9 hPa | 0.51 mm | - | - | - |
| 1778235302 | 5° C | 90% | 1011.9 hPa | 0.51 mm | - | - | - |
| 1778234402 | 5.56° C | 93% | 1011.9 hPa | 0 mm | - | - | - |
| 1778233802 | 5.56° C | 93% | 1011.9 hPa | 0 mm | - | - | - |
| 1778232903 | 5.56° C | 92% | 1011.5 hPa | 0 mm | - | - | - |
| 1778232002 | 5.56° C | 92% | 1011.9 hPa | 0 mm | - | - | - |
| 1778231102 | 5.56° C | 93% | 1011.5 hPa | 0 mm | - | - | - |
| 1778230202 | 5.56° C | 94% | 1011.9 hPa | 0 mm | - | - | - |
| 1778229301 | 6.11° C | 96% | 1011.9 hPa | 0 mm | - | - | - |
| 1778228402 | 5.56° C | 97% | 1011.9 hPa | 0 mm | - | - | - |
* Rain latest hour (hover to see other rain measurements)
** Current wind speed in m/s (hover to see current wind gust speed)